When you browse on this site, cookies collect data to enhance your experience and personalize the content and advertising you see.
Visit our Privacy Policy to learn more. By continuing to use the site, you agree to this use of cookies and data.
  • In Portugal
  • List of Countries
  • For 7 days
  • Water Temperature
  • Satellite Maps
  • Weather Map
  • Weather Widgets
  • user-avatar
    Login

    Hourly Weather Bucznik

    Today, 20 July, Saturday

    Time Temperature Precipitation Wind Pressure Humidity
    00:00 +16°C° 0.3 mm 1 mps 749 mmHg 92%
    01:00 +16°C° 0 mm 1 mps 749 mmHg 93%
    02:00 +15°C° 0.1 mm 1 mps 749 mmHg 93%
    03:00 +15°C° 0.1 mm 1 mps 749 mmHg 93%
    04:00 +15°C° 0.1 mm 1 mps 749 mmHg 93%
    05:00 +16°C° 0 mm 1 mps 750 mmHg 90%
    06:00 +17°C° 0 mm 0 mps 750 mmHg 86%
    07:00 +19°C° 0 mm 0 mps 750 mmHg 83%
    08:00 +20°C° 0.1 mm 0 mps 750 mmHg 75%
    09:00 +24°C° 0.1 mm 1 mps 750 mmHg 68%
    10:00 +26°C° 0.1 mm 1 mps 751 mmHg 61%
    11:00 +26°C° 0 mm 1 mps 751 mmHg 57%
    12:00 +27°C° 0 mm 1 mps 751 mmHg 53%
    13:00 +28°C° 0 mm 1 mps 751 mmHg 49%
    14:00 +28°C° 0 mm 1 mps 751 mmHg 50%
    15:00 +27°C° 0 mm 1 mps 751 mmHg 51%
    16:00 +27°C° 0 mm 1 mps 751 mmHg 53%
    17:00 +26°C° 0 mm 1 mps 750 mmHg 60%
    18:00 +25°C° 0 mm 2 mps 750 mmHg 68%
    19:00 +23°C° 0 mm 2 mps 750 mmHg 76%
    20:00 +21°C° 0 mm 2 mps 750 mmHg 77%
    21:00 +20°C° 0 mm 2 mps 750 mmHg 79%
    22:00 +19°C° 0 mm 2 mps 751 mmHg 81%
    23:00 +19°C° 0 mm 2 mps 751 mmHg 81%

    Tomorrow, 21 July, Sunday

    Time Temperature Precipitation Wind Pressure Humidity
    00:00 +18°C° 0 mm 2 mps 750 mmHg 80%
    01:00 +18°C° 0 mm 3 mps 750 mmHg 80%
    02:00 +18°C° 0 mm 3 mps 750 mmHg 80%
    03:00 +18°C° 0 mm 3 mps 750 mmHg 80%
    04:00 +18°C° 0 mm 3 mps 750 mmHg 80%
    05:00 +19°C° 0 mm 3 mps 750 mmHg 77%
    06:00 +21°C° 0 mm 4 mps 750 mmHg 74%
    07:00 +22°C° 0 mm 4 mps 749 mmHg 71%
    08:00 +23°C° 0 mm 4 mps 750 mmHg 69%
    09:00 +25°C° 0 mm 5 mps 750 mmHg 67%
    10:00 +26°C° 0 mm 5 mps 750 mmHg 65%
    11:00 +26°C° 0.9 mm 5 mps 750 mmHg 66%
    12:00 +27°C° 0.9 mm 4 mps 750 mmHg 67%
    13:00 +27°C° 0.9 mm 4 mps 749 mmHg 68%
    14:00 +27°C° 1 mm 4 mps 750 mmHg 70%
    15:00 +26°C° 1 mm 4 mps 750 mmHg 72%
    16:00 +26°C° 1 mm 5 mps 750 mmHg 74%
    17:00 +23°C° 0.6 mm 4 mps 750 mmHg 78%
    18:00 +22°C° 0.6 mm 3 mps 750 mmHg 82%
    19:00 +21°C° 0.6 mm 2 mps 750 mmHg 86%
    20:00 +20°C° 0 mm 2 mps 751 mmHg 88%
    21:00 +19°C° 0 mm 2 mps 751 mmHg 89%
    22:00 +18°C° 0 mm 2 mps 752 mmHg 90%
    23:00 +17°C° 0 mm 2 mps 752 mmHg 91%

    Day after tomorrow, 22 July, Monday

    Time Temperature Precipitation Wind Pressure Humidity
    00:00 +16°C° 0 mm 3 mps 752 mmHg 92%
    01:00 +16°C° 0 mm 3 mps 752 mmHg 93%
    02:00 +16°C° 0 mm 3 mps 752 mmHg 93%
    03:00 +15°C° 0 mm 4 mps 752 mmHg 93%
    04:00 +15°C° 0 mm 4 mps 752 mmHg 93%
    05:00 +17°C° 0.1 mm 4 mps 752 mmHg 90%
    06:00 +17°C° 0.1 mm 5 mps 753 mmHg 87%
    07:00 +19°C° 0.1 mm 5 mps 753 mmHg 83%
    08:00 +19°C° 0 mm 5 mps 753 mmHg 78%
    09:00 +20°C° 0 mm 5 mps 754 mmHg 72%
    10:00 +21°C° 0 mm 5 mps 754 mmHg 66%
    11:00 +22°C° 0 mm 5 mps 754 mmHg 62%
    12:00 +22°C° 0 mm 5 mps 754 mmHg 58%
    13:00 +23°C° 0 mm 6 mps 754 mmHg 54%
    14:00 +23°C° 0 mm 6 mps 754 mmHg 55%
    15:00 +22°C° 0 mm 5 mps 754 mmHg 57%
    16:00 +22°C° 0 mm 5 mps 754 mmHg 58%
    17:00 +21°C° 0 mm 5 mps 754 mmHg 64%
    18:00 +20°C° 0 mm 4 mps 754 mmHg 69%
    19:00 +18°C° 0 mm 3 mps 754 mmHg 75%
    20:00 +18°C° 0 mm 3 mps 754 mmHg 76%
    21:00 +17°C° 0 mm 2 mps 754 mmHg 78%
    22:00 +16°C° 0 mm 2 mps 755 mmHg 80%
    23:00 +15°C° 0 mm 2 mps 754 mmHg 82%

    23 July, Tuesday

    Time Temperature Precipitation Wind Pressure Humidity
    00:00 +15°C° 0 mm 2 mps 754 mmHg 85%
    01:00 +14°C° 0 mm 2 mps 754 mmHg 87%
    02:00 +14°C° 0 mm 2 mps 754 mmHg 87%
    03:00 +14°C° 0 mm 2 mps 754 mmHg 87%
    04:00 +15°C° 0 mm 2 mps 754 mmHg 87%
    05:00 +16°C° 0 mm 2 mps 754 mmHg 85%
    06:00 +17°C° 0 mm 2 mps 754 mmHg 83%
    07:00 +18°C° 0 mm 3 mps 754 mmHg 81%
    08:00 +18°C° 0 mm 3 mps 754 mmHg 82%
    09:00 +18°C° 0 mm 3 mps 754 mmHg 82%
    10:00 +18°C° 0 mm 3 mps 754 mmHg 83%
    11:00 +19°C° 0 mm 3 mps 754 mmHg 81%
    12:00 +20°C° 0 mm 3 mps 754 mmHg 79%
    13:00 +21°C° 0 mm 3 mps 754 mmHg 77%
    14:00 +21°C° 0 mm 3 mps 754 mmHg 77%
    15:00 +23°C° 0 mm 2 mps 754 mmHg 77%
    16:00 +23°C° 0 mm 2 mps 753 mmHg 77%
    17:00 +21°C° 0 mm 2 mps 753 mmHg 80%
    18:00 +22°C° 0 mm 1 mps 753 mmHg 83%
    19:00 +21°C° 0 mm 1 mps 753 mmHg 86%
    20:00 +20°C° 0 mm 1 mps 753 mmHg 89%
    21:00 +19°C° 0 mm 1 mps 753 mmHg 92%
    22:00 +16°C° 0 mm 0 mps 753 mmHg 94%
    23:00 +18°C° 0 mm 1 mps 753 mmHg 95%

    24 July, Wednesday

    Time Temperature Precipitation Wind Pressure Humidity
    00:00 +18°C° 0 mm 1 mps 753 mmHg 95%
    01:00 +18°C° 0 mm 1 mps 753 mmHg 95%
    02:00 +18°C° 0 mm 1 mps 753 mmHg 95%
    03:00 +16°C° 0 mm 2 mps 753 mmHg 96%
    04:00 +16°C° 0 mm 2 mps 753 mmHg 96%
    05:00 +18°C° 0 mm 2 mps 753 mmHg 92%
    06:00 +19°C° 0 mm 2 mps 753 mmHg 88%
    07:00 +21°C° 0 mm 2 mps 754 mmHg 84%
    08:00 +23°C° 0 mm 2 mps 754 mmHg 78%
    09:00 +25°C° 0 mm 2 mps 754 mmHg 72%
    10:00 +27°C° 0 mm 2 mps 754 mmHg 67%
    11:00 +27°C° 0 mm 2 mps 754 mmHg 65%
    12:00 +28°C° 0 mm 2 mps 754 mmHg 62%
    13:00 +28°C° 0 mm 2 mps 754 mmHg 60%
    14:00 +28°C° 0 mm 2 mps 754 mmHg 62%
    15:00 +28°C° 0 mm 3 mps 754 mmHg 63%
    16:00 +28°C° 0 mm 3 mps 753 mmHg 64%
    17:00 +26°C° 0 mm 3 mps 753 mmHg 71%
    18:00 +24°C° 0 mm 3 mps 753 mmHg 77%
    19:00 +23°C° 0 mm 2 mps 753 mmHg 84%
    20:00 +20°C° 0 mm 2 mps 753 mmHg 85%
    21:00 +20°C° 0 mm 1 mps 754 mmHg 86%
    22:00 +18°C° 0 mm 1 mps 754 mmHg 88%
    23:00 +18°C° 0 mm 1 mps 754 mmHg 87%

    25 July, Thursday

    Time Temperature Precipitation Wind Pressure Humidity
    00:00 +16°C° 0 mm 1 mps 754 mmHg 87%
    01:00 +15°C° 0 mm 0 mps 754 mmHg 87%
    02:00 +15°C° 0 mm 0 mps 754 mmHg 88%
    03:00 +14°C° 0 mm 0 mps 754 mmHg 89%
    04:00 +14°C° 0 mm 0 mps 754 mmHg 89%
    05:00 +16°C° 0 mm 0 mps 754 mmHg 84%
    06:00 +18°C° 0 mm 0 mps 755 mmHg 78%
    07:00 +20°C° 0 mm 0 mps 755 mmHg 72%
    08:00 +24°C° 0 mm 1 mps 755 mmHg 67%
    09:00 +25°C° 0 mm 1 mps 755 mmHg 61%
    10:00 +27°C° 0 mm 2 mps 755 mmHg 56%
    11:00 +28°C° 0 mm 2 mps 755 mmHg 54%
    12:00 +28°C° 0 mm 2 mps 755 mmHg 53%
    13:00 +29°C° 0 mm 3 mps 755 mmHg 52%
    14:00 +29°C° 0 mm 3 mps 755 mmHg 53%
    15:00 +28°C° 0 mm 3 mps 754 mmHg 55%
    16:00 +28°C° 0 mm 3 mps 754 mmHg 56%
    17:00 +26°C° 0 mm 3 mps 754 mmHg 65%
    18:00 +25°C° 0 mm 3 mps 754 mmHg 73%
    19:00 +23°C° 0 mm 2 mps 754 mmHg 81%
    20:00 +21°C° 0 mm 2 mps 754 mmHg 86%
    21:00 +20°C° 0 mm 2 mps 754 mmHg 90%
    22:00 +18°C° 0 mm 2 mps 755 mmHg 94%
    23:00 +18°C° 0 mm 2 mps 755 mmHg 95%
    Show more